Location: Airport Industrial Park
(35.1501°N, 90.2223°W)
Time: 20:02:50
(UTC+00:00)

Daily predictions for brighter satellites

Satellite Brightness Start Highest point End
(mag) Time Altitude Azimuth Time Altitude Azimuth Time Altitude Azimuth
Lacrosse 5 rocket 2.0 12:01:24 10° NNW 12:04:32 38° NE 12:07:36 10° ESE
Okean 1 Rocket 3.2 12:00:36 10° NNW 12:04:45 50° W 12:08:54 10° SSW
Lacrosse 4 Rocket 2.7 12:01:20 10° N 12:04:59 37° ENE 12:08:35 10° SE
Hubble Space Telescope 2.5 12:05:35 10° SW 12:08:44 25° S 12:11:54 10° ESE
ATLAS 3B R/B 4.2 12:04:11 10° W 12:09:26 20° NW 12:14:52 10° N
Sich 1 Rocket 3.9 12:05:11 10° NNW 12:09:28 44° W 12:13:41 10° SSW
Helios 1A Rocket 3.6 12:06:50 10° SSW 12:09:35 23° W 12:12:22 10° NW
Cosmos 968 Rocket 4.3 12:05:08 10° NW 12:09:41 31° W 12:14:13 10° SSW
Iridium 45 4.2 12:07:32 10° N 12:10:44 87° W 12:14:00 10° S
CENTAUR R/B 3.6 12:02:55 10° NW 12:11:36 59° WSW 12:20:49 10° S
SMAP 3.5 12:07:47 10° NNE 12:12:27 69° ESE 12:17:03 10° S
COSMO-SKYMED 1 3.2 12:09:01 10° SSW 12:12:44 32° W 12:16:27 10° NNW
Cosmos 1484 Rocket 3.3 12:11:40 10° N 12:14:46 30° WNW 12:17:52 10° SW
CZ-3 R/B 2.5 12:12:39 10° W 12:23:45 47° SSW 12:28:15 10° ESE
USA 215 3.9 23:10:57 10° E 23:16:43 35° NE 23:22:30 10° NNW
BREEZE-M DEB (TANK) 3.7 23:15:53 10° W 23:17:51 26° NNW 23:21:18 10° NE
Cosmos 1833 Rocket 3.0 23:15:05 10° NNW 23:20:43 75° WSW 23:26:19 10° SSE
RESURS DK-1 3.0 23:19:31 10° N 23:23:04 30° ENE 23:26:36 10° SE
SAR-Lupe-3 3.8 23:21:07 10° NNE 23:23:43 58° ESE 23:26:17 10° S
Landsat 7 4.0 23:19:47 10° SE 23:24:11 45° ENE 23:28:37 10° N
Cosmos 1400 Rocket 3.9 23:21:41 10° SE 23:24:42 23° E 23:27:44 10° NE
Cosmos 540 Rocket 3.8 23:22:23 10° N 23:27:13 41° ENE 23:31:59 10° SE
SJ-12 4.0 23:24:06 10° SSE 23:27:42 43° ENE 23:31:19 10° N
Helios 1A Rocket 3.9 23:31:44 10° NE 23:34:11 18° E 23:36:36 10° SE
DELTA 2 R/B (1) 3.9 23:30:01 10° SW 23:35:25 55° SSE 23:40:20 13° ENE
Cosmos 1763 Rocket 3.4 23:31:25 10° N 23:36:33 61° ENE 23:41:35 10° SSE
Cosmos 304 Rocket 4.1 23:33:33 10° S 23:37:59 41° ESE 23:42:26 10° NNE
Centaur AC-119 4.3 23:35:06 10° WSW 23:39:24 34° S 23:45:27 10° ESE
Cosmos 371 Rocket 3.7 23:35:53 10° S 23:40:23 42° ESE 23:44:56 10° NNE
Okean 2 Rocket 3.6 23:38:31 10° SSE 23:42:32 35° E 23:46:32 10° NNE
Cosmos 1536 Rocket 4.4 23:40:01 10° NNE 23:43:49 28° ENE 23:47:34 10° SE
